Regional Weather Roundup
Issued by NWS

Home | Current Version | Previous Version | Text Only | Print | Product List | Glossary Off
Versions: 1 2 3 4 5 6 7 8 9 10 11 12 13 14 15 16 17 18 19 20 21 22 23 24 25 26 27 28 29 30 31 32 33 34 35 36 37 38 39 40 41 42 43 44 45 46 47 48 49 50

000
ASUS45 KCYS 152110
RWRWY

WYOMING REGIONAL WEATHER ROUNDUP
NATIONAL WEATHER SERVICE CHEYENNE WY
200 PM MST FRI DEC 15 2017

NOTE:  "FAIR" INDICATES FEW OR NO CLOUDS BELOW 12,000 FEET
WITH NO SIGNIFICANT WEATHER AND/OR OBSTRUCTIONS TO VISIBILITY.

WYZ001-152200-
YELLOWSTONE NATIONAL PARK

CITY           SKY/WX    TMP DP  RH WIND       PRES   REMARKS
LK YELLOWSTONE   N/A     25  21  85 CALM      30.09F
W YELLOWSTONE  NOT AVBL

$$
WYZ002>013-054>058-071-098>099-152200-
NORTHERN WYOMING

CITY           SKY/WX    TMP DP  RH WIND       PRES   REMARKS
JACKSON        FAIR      28  17  63 CALM      30.13F
CODY           FAIR      51  11  20 W18G33    29.84F
GREYBULL       FAIR      39  17  41 S5        29.86F
WORLAND        FAIR      39  22  50 N3        29.86F
SHERIDAN       FAIR      47  24  40 N3        29.72F
BUFFALO        FAIR      55  13  18 SE8       29.76F
GILLETTE       FAIR      50  18  28 SW17      29.74F
HULETT         FAIR      46  21  36 SW13      29.75F
NEWCASTLE      FAIR      46  19  34 NW7       29.80S

$$
WYZ014>020-022>026-101>103-152200-
CENTRAL WYOMING

CITY           SKY/WX    TMP DP  RH WIND       PRES   REMARKS
BIG PINEY      FAIR      36  14  40 S6        30.07F WCI  31
PINEDALE       FAIR      39  14  35 NW12      30.07F WCI  32
DUBOIS         FAIR      37   9  30 N26G36    29.93F WCI  26
LANDER         FAIR      29  21  72 W7        29.90F WCI  22
RIVERTON       FAIR      30  20  66 N6        29.91F WCI  24
CASPER         FAIR      40  20  44 SW25G36   29.90F WCI  29
DOUGLAS        FAIR      52  18  26 W22       29.82F

$$
WYZ021-027>030-104>119-152200-
SOUTHERN WYOMING

CITY           SKY/WX    TMP DP  RH WIND       PRES   REMARKS
EVANSTON       FAIR      42   5  21 SW15      30.12F
FORT BRIDGER   FAIR      44   0  16 W21G29    30.14F
ROCK SPRINGS   FAIR      43   4  19 W22G30    30.06F
DIXON          FAIR      40  12  31 SW12      30.17F WCI  34
RAWLINS        FAIR      39  17  41 SW8       30.06F WCI  33
SARATOGA       FAIR      37  19  48 S6        30.08F WCI  33
LARAMIE        FAIR      39  20  46 SW20      29.98F WCI  29
CHEYENNE       FAIR      52  11  19 W26G32    29.93R
TORRINGTON     FAIR      55  16  21 W17G35    29.82F
PINE BLUFFS    FAIR      54  14  20 W22G37    29.89F

$$



USA.gov is the U.S. government's official web portal to all federal, state and local government web resources and services.